<?xml version="1.0" encoding="UTF-8"?>
<gpx version="1.1" creator="https://www.youtrack.es" xsi:schemaLocation="http://www.topografix.com/GPX/1/1 http://www.topografix.com/GPX/1/1/gpx.xsd http://www.garmin.com/xmlschemas/GpxExtensions/v3 http://www.garmin.com/xmlschemas/GpxExtensionsv3.xsd http://www.garmin.com/xmlschemas/TrackPointExtension/v1 http://www.garmin.com/xmlschemas/TrackPointExtensionv1.xsd" xmlns:gpxtpx="http://www.garmin.com/xmlschemas/TrackPointExtension/v1" xmlns:gpxx="http://www.garmin.com/xmlschemas/GpxExtensions/v3" xmlns:xsi="http://www.w3.org/2001/XMLSchema-instance">
  <metadata>
    <link href="https://www.youtrack.es">
      <text>YouTrack.es</text>
    </link>
    <time>2026-05-09T00:16:18Z</time>
  </metadata>
  <trk>
    <src>https://www.youtrack.es</src>
    <link href="https://www.youtrack.es/ruta/8835-busot">
      <text>YouTrack.es</text>
    </link>
    <trkseg>
      <trkpt lat="38.485068" lon="-0.416416">
        <ele>328.2</ele>
        <time>2019-10-03T19:58:12Z</time>
      </trkpt>
      <trkpt lat="38.485249" lon="-0.416113">
        <ele>321.3</ele>
        <time>2019-10-03T19:58:12Z</time>
      </trkpt>
      <trkpt lat="38.485417" lon="-0.415809">
        <ele>316.6</ele>
        <time>2019-10-03T19:58:12Z</time>
      </trkpt>
      <trkpt lat="38.485668" lon="-0.415667">
        <ele>313.9</ele>
        <time>2019-10-03T19:58:12Z</time>
      </trkpt>
      <trkpt lat="38.485900" lon="-0.415674">
        <ele>311.4</ele>
        <time>2019-10-03T19:58:12Z</time>
      </trkpt>
      <trkpt lat="38.486068" lon="-0.415895">
        <ele>308.9</ele>
        <time>2019-10-03T19:58:12Z</time>
      </trkpt>
      <trkpt lat="38.486278" lon="-0.416188">
        <ele>305.8</ele>
        <time>2019-10-03T19:58:12Z</time>
      </trkpt>
      <trkpt lat="38.486424" lon="-0.416491">
        <ele>302.6</ele>
        <time>2019-10-03T19:58:12Z</time>
      </trkpt>
      <trkpt lat="38.486488" lon="-0.416812">
        <ele>299.8</ele>
        <time>2019-10-03T19:58:12Z</time>
      </trkpt>
      <trkpt lat="38.486524" lon="-0.417084">
        <ele>297.6</ele>
        <time>2019-10-03T19:58:12Z</time>
      </trkpt>
      <trkpt lat="38.486514" lon="-0.417283">
        <ele>296.5</ele>
        <time>2019-10-03T19:58:12Z</time>
      </trkpt>
      <trkpt lat="38.486452" lon="-0.417476">
        <ele>296.3</ele>
        <time>2019-10-03T19:58:12Z</time>
      </trkpt>
      <trkpt lat="38.486391" lon="-0.417672">
        <ele>295.4</ele>
        <time>2019-10-03T19:58:12Z</time>
      </trkpt>
      <trkpt lat="38.486316" lon="-0.417862">
        <ele>294.8</ele>
        <time>2019-10-03T19:58:12Z</time>
      </trkpt>
      <trkpt lat="38.486198" lon="-0.418065">
        <ele>294.0</ele>
        <time>2019-10-03T19:58:12Z</time>
      </trkpt>
      <trkpt lat="38.486061" lon="-0.418208">
        <ele>293.7</ele>
        <time>2019-10-03T19:58:12Z</time>
      </trkpt>
      <trkpt lat="38.485916" lon="-0.418347">
        <ele>293.3</ele>
        <time>2019-10-03T19:58:12Z</time>
      </trkpt>
      <trkpt lat="38.485807" lon="-0.418457">
        <ele>293.3</ele>
        <time>2019-10-03T19:58:12Z</time>
      </trkpt>
      <trkpt lat="38.485679" lon="-0.418493">
        <ele>295.0</ele>
        <time>2019-10-03T19:58:12Z</time>
      </trkpt>
      <trkpt lat="38.485503" lon="-0.418432">
        <ele>298.5</ele>
        <time>2019-10-03T19:58:12Z</time>
      </trkpt>
      <trkpt lat="38.485411" lon="-0.418364">
        <ele>301.0</ele>
        <time>2019-10-03T19:58:12Z</time>
      </trkpt>
      <trkpt lat="38.485347" lon="-0.418268">
        <ele>304.0</ele>
        <time>2019-10-03T19:58:12Z</time>
      </trkpt>
      <trkpt lat="38.485235" lon="-0.418207">
        <ele>307.1</ele>
        <time>2019-10-03T19:58:12Z</time>
      </trkpt>
      <trkpt lat="38.485115" lon="-0.418161">
        <ele>310.5</ele>
        <time>2019-10-03T19:58:12Z</time>
      </trkpt>
      <trkpt lat="38.484976" lon="-0.418150">
        <ele>313.3</ele>
        <time>2019-10-03T19:58:12Z</time>
      </trkpt>
      <trkpt lat="38.484870" lon="-0.418182">
        <ele>313.4</ele>
        <time>2019-10-03T19:58:12Z</time>
      </trkpt>
      <trkpt lat="38.484652" lon="-0.418428">
        <ele>310.5</ele>
        <time>2019-10-03T19:58:12Z</time>
      </trkpt>
      <trkpt lat="38.484558" lon="-0.418539">
        <ele>309.8</ele>
        <time>2019-10-03T19:58:12Z</time>
      </trkpt>
      <trkpt lat="38.484435" lon="-0.418728">
        <ele>308.1</ele>
        <time>2019-10-03T19:58:12Z</time>
      </trkpt>
      <trkpt lat="38.484323" lon="-0.418860">
        <ele>307.7</ele>
        <time>2019-10-03T19:58:12Z</time>
      </trkpt>
      <trkpt lat="38.484212" lon="-0.418981">
        <ele>307.7</ele>
        <time>2019-10-03T19:58:12Z</time>
      </trkpt>
      <trkpt lat="38.484052" lon="-0.419063">
        <ele>309.0</ele>
        <time>2019-10-03T19:58:12Z</time>
      </trkpt>
      <trkpt lat="38.483896" lon="-0.419177">
        <ele>309.7</ele>
        <time>2019-10-03T19:58:12Z</time>
      </trkpt>
      <trkpt lat="38.483701" lon="-0.419274">
        <ele>310.6</ele>
        <time>2019-10-03T19:58:12Z</time>
      </trkpt>
      <trkpt lat="38.483544" lon="-0.419406">
        <ele>310.4</ele>
        <time>2019-10-03T19:58:12Z</time>
      </trkpt>
      <trkpt lat="38.483416" lon="-0.419555">
        <ele>309.4</ele>
        <time>2019-10-03T19:58:12Z</time>
      </trkpt>
      <trkpt lat="38.483226" lon="-0.419648">
        <ele>310.1</ele>
        <time>2019-10-03T19:58:12Z</time>
      </trkpt>
      <trkpt lat="38.483003" lon="-0.419691">
        <ele>312.0</ele>
        <time>2019-10-03T19:58:12Z</time>
      </trkpt>
      <trkpt lat="38.482846" lon="-0.419702">
        <ele>314.0</ele>
        <time>2019-10-03T19:58:12Z</time>
      </trkpt>
      <trkpt lat="38.482715" lon="-0.419623">
        <ele>317.3</ele>
        <time>2019-10-03T19:58:12Z</time>
      </trkpt>
      <trkpt lat="38.482551" lon="-0.419633">
        <ele>319.2</ele>
        <time>2019-10-03T19:58:12Z</time>
      </trkpt>
      <trkpt lat="38.482386" lon="-0.419723">
        <ele>318.5</ele>
        <time>2019-10-03T19:58:12Z</time>
      </trkpt>
      <trkpt lat="38.482213" lon="-0.419823">
        <ele>317.2</ele>
        <time>2019-10-03T19:58:12Z</time>
      </trkpt>
      <trkpt lat="38.482045" lon="-0.419940">
        <ele>315.8</ele>
        <time>2019-10-03T19:58:12Z</time>
      </trkpt>
      <trkpt lat="38.481906" lon="-0.420090">
        <ele>314.0</ele>
        <time>2019-10-03T19:58:12Z</time>
      </trkpt>
      <trkpt lat="38.481752" lon="-0.420197">
        <ele>313.2</ele>
        <time>2019-10-03T19:58:12Z</time>
      </trkpt>
      <trkpt lat="38.481654" lon="-0.420265">
        <ele>312.5</ele>
        <time>2019-10-03T19:58:12Z</time>
      </trkpt>
      <trkpt lat="38.481562" lon="-0.420233">
        <ele>313.8</ele>
        <time>2019-10-03T19:58:12Z</time>
      </trkpt>
      <trkpt lat="38.481518" lon="-0.420129">
        <ele>315.9</ele>
        <time>2019-10-03T19:58:12Z</time>
      </trkpt>
      <trkpt lat="38.481485" lon="-0.419918">
        <ele>319.9</ele>
        <time>2019-10-03T19:58:12Z</time>
      </trkpt>
      <trkpt lat="38.481569" lon="-0.419747">
        <ele>322.4</ele>
        <time>2019-10-03T19:58:12Z</time>
      </trkpt>
      <trkpt lat="38.481712" lon="-0.419554">
        <ele>325.3</ele>
        <time>2019-10-03T19:58:12Z</time>
      </trkpt>
      <trkpt lat="38.481854" lon="-0.419361">
        <ele>328.5</ele>
        <time>2019-10-03T19:58:12Z</time>
      </trkpt>
      <trkpt lat="38.481958" lon="-0.419153">
        <ele>332.1</ele>
        <time>2019-10-03T19:58:12Z</time>
      </trkpt>
      <trkpt lat="38.481930" lon="-0.418978">
        <ele>334.5</ele>
        <time>2019-10-03T19:58:12Z</time>
      </trkpt>
      <trkpt lat="38.481838" lon="-0.418882">
        <ele>335.8</ele>
        <time>2019-10-03T19:58:12Z</time>
      </trkpt>
      <trkpt lat="38.481724" lon="-0.418885">
        <ele>335.6</ele>
        <time>2019-10-03T19:58:12Z</time>
      </trkpt>
      <trkpt lat="38.481607" lon="-0.418982">
        <ele>334.9</ele>
        <time>2019-10-03T19:58:12Z</time>
      </trkpt>
      <trkpt lat="38.481492" lon="-0.419049">
        <ele>334.4</ele>
        <time>2019-10-03T19:58:12Z</time>
      </trkpt>
      <trkpt lat="38.481350" lon="-0.419092">
        <ele>334.1</ele>
        <time>2019-10-03T19:58:12Z</time>
      </trkpt>
      <trkpt lat="38.481193" lon="-0.419106">
        <ele>334.2</ele>
        <time>2019-10-03T19:58:12Z</time>
      </trkpt>
      <trkpt lat="38.481012" lon="-0.419106">
        <ele>334.5</ele>
        <time>2019-10-03T19:58:12Z</time>
      </trkpt>
      <trkpt lat="38.480864" lon="-0.419113">
        <ele>334.7</ele>
        <time>2019-10-03T19:58:12Z</time>
      </trkpt>
      <trkpt lat="38.480719" lon="-0.419170">
        <ele>333.8</ele>
        <time>2019-10-03T19:58:12Z</time>
      </trkpt>
      <trkpt lat="38.480573" lon="-0.419220">
        <ele>333.3</ele>
        <time>2019-10-03T19:58:12Z</time>
      </trkpt>
      <trkpt lat="38.480384" lon="-0.419238">
        <ele>332.8</ele>
        <time>2019-10-03T19:58:12Z</time>
      </trkpt>
      <trkpt lat="38.480194" lon="-0.419270">
        <ele>332.3</ele>
        <time>2019-10-03T19:58:12Z</time>
      </trkpt>
      <trkpt lat="38.479987" lon="-0.419313">
        <ele>331.2</ele>
        <time>2019-10-03T19:58:12Z</time>
      </trkpt>
      <trkpt lat="38.479789" lon="-0.419345">
        <ele>331.3</ele>
        <time>2019-10-03T19:58:12Z</time>
      </trkpt>
      <trkpt lat="38.479692" lon="-0.419305">
        <ele>332.3</ele>
        <time>2019-10-03T19:58:12Z</time>
      </trkpt>
      <trkpt lat="38.479669" lon="-0.419180">
        <ele>334.9</ele>
        <time>2019-10-03T19:58:12Z</time>
      </trkpt>
      <trkpt lat="38.479717" lon="-0.419048">
        <ele>339.2</ele>
        <time>2019-10-03T19:58:12Z</time>
      </trkpt>
      <trkpt lat="38.479807" lon="-0.418980">
        <ele>341.3</ele>
        <time>2019-10-03T19:58:12Z</time>
      </trkpt>
      <trkpt lat="38.479893" lon="-0.418951">
        <ele>342.0</ele>
        <time>2019-10-03T19:58:12Z</time>
      </trkpt>
      <trkpt lat="38.480011" lon="-0.418997">
        <ele>340.2</ele>
        <time>2019-10-03T19:58:12Z</time>
      </trkpt>
      <trkpt lat="38.480193" lon="-0.419054">
        <ele>337.3</ele>
        <time>2019-10-03T19:58:12Z</time>
      </trkpt>
      <trkpt lat="38.480358" lon="-0.419036">
        <ele>337.6</ele>
        <time>2019-10-03T19:58:12Z</time>
      </trkpt>
      <trkpt lat="38.480501" lon="-0.419001">
        <ele>337.7</ele>
        <time>2019-10-03T19:58:12Z</time>
      </trkpt>
      <trkpt lat="38.480669" lon="-0.418904">
        <ele>338.9</ele>
        <time>2019-10-03T19:58:12Z</time>
      </trkpt>
      <trkpt lat="38.480929" lon="-0.418890">
        <ele>337.7</ele>
        <time>2019-10-03T19:58:12Z</time>
      </trkpt>
      <trkpt lat="38.481211" lon="-0.418800">
        <ele>338.0</ele>
        <time>2019-10-03T19:58:12Z</time>
      </trkpt>
      <trkpt lat="38.481508" lon="-0.418611">
        <ele>338.9</ele>
        <time>2019-10-03T19:58:12Z</time>
      </trkpt>
      <trkpt lat="38.481841" lon="-0.418365">
        <ele>342.0</ele>
        <time>2019-10-03T19:58:12Z</time>
      </trkpt>
      <trkpt lat="38.482165" lon="-0.418100">
        <ele>346.0</ele>
        <time>2019-10-03T19:58:12Z</time>
      </trkpt>
      <trkpt lat="38.482313" lon="-0.417886">
        <ele>346.8</ele>
        <time>2019-10-03T19:58:12Z</time>
      </trkpt>
      <trkpt lat="38.482414" lon="-0.417628">
        <ele>346.6</ele>
        <time>2019-10-03T19:58:12Z</time>
      </trkpt>
      <trkpt lat="38.482459" lon="-0.417343">
        <ele>345.9</ele>
        <time>2019-10-03T19:58:12Z</time>
      </trkpt>
      <trkpt lat="38.482504" lon="-0.417057">
        <ele>344.9</ele>
        <time>2019-10-03T19:58:12Z</time>
      </trkpt>
      <trkpt lat="38.482563" lon="-0.416785">
        <ele>343.3</ele>
        <time>2019-10-03T19:58:12Z</time>
      </trkpt>
      <trkpt lat="38.482666" lon="-0.416553">
        <ele>342.1</ele>
        <time>2019-10-03T19:58:12Z</time>
      </trkpt>
      <trkpt lat="38.482789" lon="-0.416396">
        <ele>341.2</ele>
        <time>2019-10-03T19:58:12Z</time>
      </trkpt>
      <trkpt lat="38.482991" lon="-0.416267">
        <ele>338.9</ele>
        <time>2019-10-03T19:58:12Z</time>
      </trkpt>
      <trkpt lat="38.483078" lon="-0.416149">
        <ele>338.2</ele>
        <time>2019-10-03T19:58:12Z</time>
      </trkpt>
      <trkpt lat="38.483173" lon="-0.415860">
        <ele>338.5</ele>
        <time>2019-10-03T19:58:12Z</time>
      </trkpt>
      <trkpt lat="38.483276" lon="-0.415735">
        <ele>337.8</ele>
        <time>2019-10-03T19:58:12Z</time>
      </trkpt>
      <trkpt lat="38.483578" lon="-0.415549">
        <ele>335.2</ele>
        <time>2019-10-03T19:58:12Z</time>
      </trkpt>
      <trkpt lat="38.483553" lon="-0.414910">
        <ele>341.3</ele>
        <time>2019-10-03T19:58:12Z</time>
      </trkpt>
      <trkpt lat="38.483688" lon="-0.414517">
        <ele>342.7</ele>
        <time>2019-10-03T19:58:12Z</time>
      </trkpt>
      <trkpt lat="38.483878" lon="-0.414088">
        <ele>344.6</ele>
        <time>2019-10-03T19:58:12Z</time>
      </trkpt>
      <trkpt lat="38.483984" lon="-0.413938">
        <ele>345.7</ele>
        <time>2019-10-03T19:58:12Z</time>
      </trkpt>
      <trkpt lat="38.484225" lon="-0.413827">
        <ele>345.6</ele>
        <time>2019-10-03T19:58:12Z</time>
      </trkpt>
      <trkpt lat="38.484457" lon="-0.413688">
        <ele>344.4</ele>
        <time>2019-10-03T19:58:12Z</time>
      </trkpt>
      <trkpt lat="38.484561" lon="-0.413502">
        <ele>346.0</ele>
        <time>2019-10-03T19:58:12Z</time>
      </trkpt>
      <trkpt lat="38.484636" lon="-0.413274">
        <ele>348.3</ele>
        <time>2019-10-03T19:58:12Z</time>
      </trkpt>
      <trkpt lat="38.484709" lon="-0.413002">
        <ele>351.6</ele>
        <time>2019-10-03T19:58:12Z</time>
      </trkpt>
      <trkpt lat="38.484788" lon="-0.412717">
        <ele>355.6</ele>
        <time>2019-10-03T19:58:12Z</time>
      </trkpt>
      <trkpt lat="38.484916" lon="-0.412452">
        <ele>359.1</ele>
        <time>2019-10-03T19:58:12Z</time>
      </trkpt>
      <trkpt lat="38.485039" lon="-0.412277">
        <ele>360.8</ele>
        <time>2019-10-03T19:58:12Z</time>
      </trkpt>
      <trkpt lat="38.485193" lon="-0.412124">
        <ele>360.4</ele>
        <time>2019-10-03T19:58:12Z</time>
      </trkpt>
      <trkpt lat="38.485680" lon="-0.411752">
        <ele>356.7</ele>
        <time>2019-10-03T19:58:12Z</time>
      </trkpt>
      <trkpt lat="38.485887" lon="-0.411281">
        <ele>361.1</ele>
        <time>2019-10-03T19:58:12Z</time>
      </trkpt>
      <trkpt lat="38.486097" lon="-0.410809">
        <ele>365.2</ele>
        <time>2019-10-03T19:58:12Z</time>
      </trkpt>
      <trkpt lat="38.486307" lon="-0.410338">
        <ele>366.9</ele>
        <time>2019-10-03T19:58:12Z</time>
      </trkpt>
      <trkpt lat="38.486598" lon="-0.410006">
        <ele>370.8</ele>
        <time>2019-10-03T19:58:12Z</time>
      </trkpt>
      <trkpt lat="38.486908" lon="-0.409716">
        <ele>368.8</ele>
        <time>2019-10-03T19:58:12Z</time>
      </trkpt>
      <trkpt lat="38.487191" lon="-0.409431">
        <ele>368.9</ele>
        <time>2019-10-03T19:58:12Z</time>
      </trkpt>
      <trkpt lat="38.487345" lon="-0.409163">
        <ele>371.8</ele>
        <time>2019-10-03T19:58:12Z</time>
      </trkpt>
      <trkpt lat="38.487541" lon="-0.408788">
        <ele>374.8</ele>
        <time>2019-10-03T19:58:12Z</time>
      </trkpt>
      <trkpt lat="38.487754" lon="-0.408477">
        <ele>375.8</ele>
        <time>2019-10-03T19:58:12Z</time>
      </trkpt>
      <trkpt lat="38.487955" lon="-0.408155">
        <ele>376.0</ele>
        <time>2019-10-03T19:58:12Z</time>
      </trkpt>
      <trkpt lat="38.488117" lon="-0.407855">
        <ele>378.4</ele>
        <time>2019-10-03T19:58:12Z</time>
      </trkpt>
      <trkpt lat="38.488263" lon="-0.407491">
        <ele>385.2</ele>
        <time>2019-10-03T19:58:12Z</time>
      </trkpt>
      <trkpt lat="38.488448" lon="-0.407191">
        <ele>384.8</ele>
        <time>2019-10-03T19:58:12Z</time>
      </trkpt>
      <trkpt lat="38.488680" lon="-0.406891">
        <ele>388.4</ele>
        <time>2019-10-03T19:58:12Z</time>
      </trkpt>
      <trkpt lat="38.488920" lon="-0.406587">
        <ele>394.8</ele>
        <time>2019-10-03T19:58:12Z</time>
      </trkpt>
      <trkpt lat="38.489135" lon="-0.406280">
        <ele>397.0</ele>
        <time>2019-10-03T19:58:12Z</time>
      </trkpt>
      <trkpt lat="38.489306" lon="-0.405941">
        <ele>394.7</ele>
        <time>2019-10-03T19:58:12Z</time>
      </trkpt>
      <trkpt lat="38.489421" lon="-0.405591">
        <ele>390.0</ele>
        <time>2019-10-03T19:58:12Z</time>
      </trkpt>
      <trkpt lat="38.489538" lon="-0.405244">
        <ele>384.6</ele>
        <time>2019-10-03T19:58:12Z</time>
      </trkpt>
      <trkpt lat="38.489712" lon="-0.404891">
        <ele>381.9</ele>
        <time>2019-10-03T19:58:12Z</time>
      </trkpt>
      <trkpt lat="38.489950" lon="-0.404644">
        <ele>384.0</ele>
        <time>2019-10-03T19:58:12Z</time>
      </trkpt>
      <trkpt lat="38.490252" lon="-0.404408">
        <ele>391.4</ele>
        <time>2019-10-03T19:58:12Z</time>
      </trkpt>
      <trkpt lat="38.490414" lon="-0.404201">
        <ele>394.2</ele>
        <time>2019-10-03T19:58:12Z</time>
      </trkpt>
      <trkpt lat="38.490487" lon="-0.403912">
        <ele>391.5</ele>
        <time>2019-10-03T19:58:12Z</time>
      </trkpt>
      <trkpt lat="38.490434" lon="-0.403358">
        <ele>376.4</ele>
        <time>2019-10-03T19:58:12Z</time>
      </trkpt>
      <trkpt lat="38.490560" lon="-0.402887">
        <ele>378.5</ele>
        <time>2019-10-03T19:58:12Z</time>
      </trkpt>
      <trkpt lat="38.490510" lon="-0.402726">
        <ele>375.9</ele>
        <time>2019-10-03T19:58:12Z</time>
      </trkpt>
      <trkpt lat="38.490370" lon="-0.402601">
        <ele>370.3</ele>
        <time>2019-10-03T19:58:12Z</time>
      </trkpt>
      <trkpt lat="38.490166" lon="-0.402411">
        <ele>364.6</ele>
        <time>2019-10-03T19:58:12Z</time>
      </trkpt>
      <trkpt lat="38.489747" lon="-0.401919">
        <ele>364.8</ele>
        <time>2019-10-03T19:58:12Z</time>
      </trkpt>
      <trkpt lat="38.489490" lon="-0.401844">
        <ele>358.6</ele>
        <time>2019-10-03T19:58:12Z</time>
      </trkpt>
      <trkpt lat="38.489273" lon="-0.401686">
        <ele>355.8</ele>
        <time>2019-10-03T19:58:12Z</time>
      </trkpt>
      <trkpt lat="38.489248" lon="-0.401322">
        <ele>352.6</ele>
        <time>2019-10-03T19:58:12Z</time>
      </trkpt>
      <trkpt lat="38.489376" lon="-0.401040">
        <ele>353.5</ele>
        <time>2019-10-03T19:58:12Z</time>
      </trkpt>
      <trkpt lat="38.489558" lon="-0.400872">
        <ele>356.4</ele>
        <time>2019-10-03T19:58:12Z</time>
      </trkpt>
      <trkpt lat="38.489832" lon="-0.400768">
        <ele>360.9</ele>
        <time>2019-10-03T19:58:12Z</time>
      </trkpt>
      <trkpt lat="38.489958" lon="-0.400582">
        <ele>358.5</ele>
        <time>2019-10-03T19:58:12Z</time>
      </trkpt>
      <trkpt lat="38.490204" lon="-0.399939">
        <ele>348.4</ele>
        <time>2019-10-03T19:58:12Z</time>
      </trkpt>
      <trkpt lat="38.490314" lon="-0.399829">
        <ele>350.5</ele>
        <time>2019-10-03T19:58:12Z</time>
      </trkpt>
      <trkpt lat="38.490590" lon="-0.399768">
        <ele>359.2</ele>
        <time>2019-10-03T19:58:12Z</time>
      </trkpt>
      <trkpt lat="38.490688" lon="-0.399621">
        <ele>360.2</ele>
        <time>2019-10-03T19:58:12Z</time>
      </trkpt>
      <trkpt lat="38.490694" lon="-0.399335">
        <ele>355.9</ele>
        <time>2019-10-03T19:58:12Z</time>
      </trkpt>
      <trkpt lat="38.490711" lon="-0.398989">
        <ele>354.6</ele>
        <time>2019-10-03T19:58:12Z</time>
      </trkpt>
      <trkpt lat="38.490742" lon="-0.398835">
        <ele>356.2</ele>
        <time>2019-10-03T19:58:12Z</time>
      </trkpt>
      <trkpt lat="38.490893" lon="-0.398543">
        <ele>362.6</ele>
        <time>2019-10-03T19:58:12Z</time>
      </trkpt>
      <trkpt lat="38.490876" lon="-0.398339">
        <ele>362.9</ele>
        <time>2019-10-03T19:58:12Z</time>
      </trkpt>
      <trkpt lat="38.490614" lon="-0.397978">
        <ele>356.8</ele>
        <time>2019-10-03T19:58:12Z</time>
      </trkpt>
      <trkpt lat="38.490533" lon="-0.397642">
        <ele>357.5</ele>
        <time>2019-10-03T19:58:12Z</time>
      </trkpt>
      <trkpt lat="38.490466" lon="-0.397224">
        <ele>356.2</ele>
        <time>2019-10-03T19:58:12Z</time>
      </trkpt>
      <trkpt lat="38.490354" lon="-0.396764">
        <ele>352.7</ele>
        <time>2019-10-03T19:58:12Z</time>
      </trkpt>
      <trkpt lat="38.490385" lon="-0.396539">
        <ele>352.1</ele>
        <time>2019-10-03T19:58:12Z</time>
      </trkpt>
      <trkpt lat="38.490489" lon="-0.396228">
        <ele>350.8</ele>
        <time>2019-10-03T19:58:12Z</time>
      </trkpt>
      <trkpt lat="38.490617" lon="-0.395839">
        <ele>349.0</ele>
        <time>2019-10-03T19:58:12Z</time>
      </trkpt>
      <trkpt lat="38.490617" lon="-0.395746">
        <ele>348.2</ele>
        <time>2019-10-03T19:58:12Z</time>
      </trkpt>
      <trkpt lat="38.490534" lon="-0.395803">
        <ele>347.0</ele>
        <time>2019-10-03T19:58:12Z</time>
      </trkpt>
      <trkpt lat="38.490458" lon="-0.395981">
        <ele>347.5</ele>
        <time>2019-10-03T19:58:12Z</time>
      </trkpt>
      <trkpt lat="38.490341" lon="-0.396217">
        <ele>347.7</ele>
        <time>2019-10-03T19:58:12Z</time>
      </trkpt>
      <trkpt lat="38.490227" lon="-0.396495">
        <ele>348.2</ele>
        <time>2019-10-03T19:58:12Z</time>
      </trkpt>
      <trkpt lat="38.490095" lon="-0.396713">
        <ele>346.9</ele>
        <time>2019-10-03T19:58:12Z</time>
      </trkpt>
      <trkpt lat="38.489956" lon="-0.396874">
        <ele>342.7</ele>
        <time>2019-10-03T19:58:12Z</time>
      </trkpt>
      <trkpt lat="38.489797" lon="-0.397006">
        <ele>338.0</ele>
        <time>2019-10-03T19:58:12Z</time>
      </trkpt>
      <trkpt lat="38.489652" lon="-0.397091">
        <ele>333.9</ele>
        <time>2019-10-03T19:58:12Z</time>
      </trkpt>
      <trkpt lat="38.489442" lon="-0.397137">
        <ele>328.5</ele>
        <time>2019-10-03T19:58:12Z</time>
      </trkpt>
      <trkpt lat="38.489227" lon="-0.397134">
        <ele>323.3</ele>
        <time>2019-10-03T19:58:12Z</time>
      </trkpt>
      <trkpt lat="38.489001" lon="-0.397112">
        <ele>320.5</ele>
        <time>2019-10-03T19:58:12Z</time>
      </trkpt>
      <trkpt lat="38.488747" lon="-0.397026">
        <ele>318.5</ele>
        <time>2019-10-03T19:58:12Z</time>
      </trkpt>
      <trkpt lat="38.488582" lon="-0.396948">
        <ele>316.9</ele>
        <time>2019-10-03T19:58:12Z</time>
      </trkpt>
      <trkpt lat="38.488395" lon="-0.396965">
        <ele>315.0</ele>
        <time>2019-10-03T19:58:12Z</time>
      </trkpt>
      <trkpt lat="38.488228" lon="-0.397083">
        <ele>313.9</ele>
        <time>2019-10-03T19:58:12Z</time>
      </trkpt>
      <trkpt lat="38.488088" lon="-0.397294">
        <ele>313.4</ele>
        <time>2019-10-03T19:58:12Z</time>
      </trkpt>
      <trkpt lat="38.487923" lon="-0.397554">
        <ele>312.3</ele>
        <time>2019-10-03T19:58:12Z</time>
      </trkpt>
      <trkpt lat="38.487859" lon="-0.397715">
        <ele>310.8</ele>
        <time>2019-10-03T19:58:12Z</time>
      </trkpt>
      <trkpt lat="38.487845" lon="-0.397933">
        <ele>309.5</ele>
        <time>2019-10-03T19:58:12Z</time>
      </trkpt>
      <trkpt lat="38.487888" lon="-0.398143">
        <ele>309.0</ele>
        <time>2019-10-03T19:58:12Z</time>
      </trkpt>
      <trkpt lat="38.488011" lon="-0.398436">
        <ele>308.4</ele>
        <time>2019-10-03T19:58:12Z</time>
      </trkpt>
      <trkpt lat="38.488145" lon="-0.398743">
        <ele>306.6</ele>
        <time>2019-10-03T19:58:12Z</time>
      </trkpt>
      <trkpt lat="38.488252" lon="-0.399057">
        <ele>304.7</ele>
        <time>2019-10-03T19:58:12Z</time>
      </trkpt>
      <trkpt lat="38.488266" lon="-0.399246">
        <ele>303.7</ele>
        <time>2019-10-03T19:58:12Z</time>
      </trkpt>
      <trkpt lat="38.488199" lon="-0.399389">
        <ele>302.3</ele>
        <time>2019-10-03T19:58:12Z</time>
      </trkpt>
      <trkpt lat="38.488107" lon="-0.399496">
        <ele>300.7</ele>
        <time>2019-10-03T19:58:12Z</time>
      </trkpt>
      <trkpt lat="38.487964" lon="-0.399546">
        <ele>298.5</ele>
        <time>2019-10-03T19:58:12Z</time>
      </trkpt>
      <trkpt lat="38.487811" lon="-0.399595">
        <ele>296.2</ele>
        <time>2019-10-03T19:58:12Z</time>
      </trkpt>
      <trkpt lat="38.487593" lon="-0.399667">
        <ele>293.2</ele>
        <time>2019-10-03T19:58:12Z</time>
      </trkpt>
      <trkpt lat="38.487364" lon="-0.399710">
        <ele>291.2</ele>
        <time>2019-10-03T19:58:12Z</time>
      </trkpt>
      <trkpt lat="38.487088" lon="-0.399717">
        <ele>289.6</ele>
        <time>2019-10-03T19:58:12Z</time>
      </trkpt>
      <trkpt lat="38.486909" lon="-0.399781">
        <ele>288.7</ele>
        <time>2019-10-03T19:58:12Z</time>
      </trkpt>
      <trkpt lat="38.486797" lon="-0.399927">
        <ele>288.5</ele>
        <time>2019-10-03T19:58:12Z</time>
      </trkpt>
      <trkpt lat="38.486588" lon="-0.400305">
        <ele>289.8</ele>
        <time>2019-10-03T19:58:12Z</time>
      </trkpt>
      <trkpt lat="38.486406" lon="-0.400773">
        <ele>290.6</ele>
        <time>2019-10-03T19:58:12Z</time>
      </trkpt>
      <trkpt lat="38.486289" lon="-0.401294">
        <ele>286.8</ele>
        <time>2019-10-03T19:58:12Z</time>
      </trkpt>
      <trkpt lat="38.486200" lon="-0.401844">
        <ele>282.1</ele>
        <time>2019-10-03T19:58:12Z</time>
      </trkpt>
      <trkpt lat="38.486141" lon="-0.402408">
        <ele>276.6</ele>
        <time>2019-10-03T19:58:12Z</time>
      </trkpt>
      <trkpt lat="38.486094" lon="-0.402976">
        <ele>274.7</ele>
        <time>2019-10-03T19:58:12Z</time>
      </trkpt>
      <trkpt lat="38.486019" lon="-0.403283">
        <ele>273.5</ele>
        <time>2019-10-03T19:58:12Z</time>
      </trkpt>
      <trkpt lat="38.485863" lon="-0.403497">
        <ele>272.6</ele>
        <time>2019-10-03T19:58:12Z</time>
      </trkpt>
      <trkpt lat="38.485678" lon="-0.403697">
        <ele>272.1</ele>
        <time>2019-10-03T19:58:12Z</time>
      </trkpt>
      <trkpt lat="38.485491" lon="-0.403890">
        <ele>271.3</ele>
        <time>2019-10-03T19:58:12Z</time>
      </trkpt>
      <trkpt lat="38.485352" lon="-0.403997">
        <ele>270.4</ele>
        <time>2019-10-03T19:58:12Z</time>
      </trkpt>
      <trkpt lat="38.485067" lon="-0.404061">
        <ele>267.4</ele>
        <time>2019-10-03T19:58:12Z</time>
      </trkpt>
      <trkpt lat="38.484720" lon="-0.404100">
        <ele>264.5</ele>
        <time>2019-10-03T19:58:12Z</time>
      </trkpt>
      <trkpt lat="38.484424" lon="-0.404139">
        <ele>262.1</ele>
        <time>2019-10-03T19:58:12Z</time>
      </trkpt>
      <trkpt lat="38.484027" lon="-0.404118">
        <ele>259.3</ele>
        <time>2019-10-03T19:58:12Z</time>
      </trkpt>
      <trkpt lat="38.483594" lon="-0.404064">
        <ele>257.2</ele>
        <time>2019-10-03T19:58:12Z</time>
      </trkpt>
      <trkpt lat="38.483413" lon="-0.404021">
        <ele>256.4</ele>
        <time>2019-10-03T19:58:12Z</time>
      </trkpt>
      <trkpt lat="38.483215" lon="-0.403957">
        <ele>255.1</ele>
        <time>2019-10-03T19:58:12Z</time>
      </trkpt>
      <trkpt lat="38.482972" lon="-0.403835">
        <ele>253.1</ele>
        <time>2019-10-03T19:58:12Z</time>
      </trkpt>
      <trkpt lat="38.482712" lon="-0.403728">
        <ele>250.8</ele>
        <time>2019-10-03T19:58:12Z</time>
      </trkpt>
      <trkpt lat="38.482469" lon="-0.403621">
        <ele>248.5</ele>
        <time>2019-10-03T19:58:12Z</time>
      </trkpt>
      <trkpt lat="38.482279" lon="-0.403585">
        <ele>246.9</ele>
        <time>2019-10-03T19:58:12Z</time>
      </trkpt>
      <trkpt lat="38.482134" lon="-0.403567">
        <ele>245.8</ele>
        <time>2019-10-03T19:58:12Z</time>
      </trkpt>
      <trkpt lat="38.482011" lon="-0.403642">
        <ele>245.0</ele>
        <time>2019-10-03T19:58:12Z</time>
      </trkpt>
      <trkpt lat="38.481938" lon="-0.403795">
        <ele>244.7</ele>
        <time>2019-10-03T19:58:12Z</time>
      </trkpt>
      <trkpt lat="38.481897" lon="-0.403970">
        <ele>244.6</ele>
        <time>2019-10-03T19:58:12Z</time>
      </trkpt>
      <trkpt lat="38.481841" lon="-0.404149">
        <ele>244.5</ele>
        <time>2019-10-03T19:58:12Z</time>
      </trkpt>
      <trkpt lat="38.481712" lon="-0.404256">
        <ele>244.1</ele>
        <time>2019-10-03T19:58:12Z</time>
      </trkpt>
      <trkpt lat="38.481743" lon="-0.404337">
        <ele>244.9</ele>
        <time>2019-10-03T19:58:12Z</time>
      </trkpt>
      <trkpt lat="38.482342" lon="-0.404655">
        <ele>241.3</ele>
        <time>2019-10-03T13:17:00Z</time>
      </trkpt>
      <trkpt lat="38.482342" lon="-0.404655">
        <ele>241.3</ele>
        <time>2019-10-03T13:17:01Z</time>
      </trkpt>
      <trkpt lat="38.482406" lon="-0.404775">
        <ele>242.9</ele>
        <time>2019-10-03T13:17:08Z</time>
      </trkpt>
      <trkpt lat="38.482445" lon="-0.404889">
        <ele>243.9</ele>
        <time>2019-10-03T13:17:11Z</time>
      </trkpt>
      <trkpt lat="38.482437" lon="-0.405073">
        <ele>244.4</ele>
        <time>2019-10-03T13:17:14Z</time>
      </trkpt>
      <trkpt lat="38.482396" lon="-0.405212">
        <ele>244.7</ele>
        <time>2019-10-03T13:17:16Z</time>
      </trkpt>
      <trkpt lat="38.482340" lon="-0.405346">
        <ele>245.0</ele>
        <time>2019-10-03T13:17:18Z</time>
      </trkpt>
      <trkpt lat="38.482286" lon="-0.405472">
        <ele>245.2</ele>
        <time>2019-10-03T13:17:20Z</time>
      </trkpt>
      <trkpt lat="38.482243" lon="-0.405606">
        <ele>245.1</ele>
        <time>2019-10-03T13:17:22Z</time>
      </trkpt>
      <trkpt lat="38.482261" lon="-0.405741">
        <ele>245.2</ele>
        <time>2019-10-03T13:17:24Z</time>
      </trkpt>
      <trkpt lat="38.482354" lon="-0.405831">
        <ele>245.3</ele>
        <time>2019-10-03T13:17:26Z</time>
      </trkpt>
      <trkpt lat="38.482478" lon="-0.405881">
        <ele>245.2</ele>
        <time>2019-10-03T13:17:28Z</time>
      </trkpt>
      <trkpt lat="38.482610" lon="-0.405971">
        <ele>245.4</ele>
        <time>2019-10-03T13:17:30Z</time>
      </trkpt>
      <trkpt lat="38.482759" lon="-0.406095">
        <ele>245.6</ele>
        <time>2019-10-03T13:17:32Z</time>
      </trkpt>
      <trkpt lat="38.482836" lon="-0.406158">
        <ele>245.5</ele>
        <time>2019-10-03T13:17:33Z</time>
      </trkpt>
      <trkpt lat="38.482973" lon="-0.406270">
        <ele>245.3</ele>
        <time>2019-10-03T13:17:35Z</time>
      </trkpt>
      <trkpt lat="38.483070" lon="-0.406393">
        <ele>245.5</ele>
        <time>2019-10-03T13:17:37Z</time>
      </trkpt>
      <trkpt lat="38.483128" lon="-0.406553">
        <ele>245.6</ele>
        <time>2019-10-03T13:17:39Z</time>
      </trkpt>
      <trkpt lat="38.483176" lon="-0.406721">
        <ele>245.1</ele>
        <time>2019-10-03T13:17:41Z</time>
      </trkpt>
      <trkpt lat="38.483227" lon="-0.406871">
        <ele>245.2</ele>
        <time>2019-10-03T13:17:43Z</time>
      </trkpt>
      <trkpt lat="38.483289" lon="-0.407014">
        <ele>245.4</ele>
        <time>2019-10-03T13:17:45Z</time>
      </trkpt>
      <trkpt lat="38.483366" lon="-0.407168">
        <ele>245.2</ele>
        <time>2019-10-03T13:17:47Z</time>
      </trkpt>
      <trkpt lat="38.483432" lon="-0.407333">
        <ele>245.2</ele>
        <time>2019-10-03T13:17:49Z</time>
      </trkpt>
      <trkpt lat="38.483489" lon="-0.407525">
        <ele>245.5</ele>
        <time>2019-10-03T13:17:51Z</time>
      </trkpt>
      <trkpt lat="38.483524" lon="-0.407729">
        <ele>245.9</ele>
        <time>2019-10-03T13:17:53Z</time>
      </trkpt>
      <trkpt lat="38.483566" lon="-0.407905">
        <ele>246.4</ele>
        <time>2019-10-03T13:17:55Z</time>
      </trkpt>
      <trkpt lat="38.483571" lon="-0.408033">
        <ele>246.5</ele>
        <time>2019-10-03T13:17:58Z</time>
      </trkpt>
      <trkpt lat="38.483508" lon="-0.408145">
        <ele>244.1</ele>
        <time>2019-10-03T13:18:17Z</time>
      </trkpt>
      <trkpt lat="38.483438" lon="-0.408257">
        <ele>244.6</ele>
        <time>2019-10-03T13:18:19Z</time>
      </trkpt>
      <trkpt lat="38.483312" lon="-0.408320">
        <ele>244.9</ele>
        <time>2019-10-03T13:18:21Z</time>
      </trkpt>
      <trkpt lat="38.483185" lon="-0.408346">
        <ele>244.7</ele>
        <time>2019-10-03T13:18:23Z</time>
      </trkpt>
      <trkpt lat="38.483065" lon="-0.408408">
        <ele>244.6</ele>
        <time>2019-10-03T13:18:25Z</time>
      </trkpt>
      <trkpt lat="38.482943" lon="-0.408486">
        <ele>244.2</ele>
        <time>2019-10-03T13:18:27Z</time>
      </trkpt>
      <trkpt lat="38.482825" lon="-0.408570">
        <ele>244.4</ele>
        <time>2019-10-03T13:18:29Z</time>
      </trkpt>
      <trkpt lat="38.482708" lon="-0.408655">
        <ele>244.7</ele>
        <time>2019-10-03T13:18:31Z</time>
      </trkpt>
      <trkpt lat="38.482598" lon="-0.408757">
        <ele>244.8</ele>
        <time>2019-10-03T13:18:33Z</time>
      </trkpt>
      <trkpt lat="38.482492" lon="-0.408871">
        <ele>244.8</ele>
        <time>2019-10-03T13:18:35Z</time>
      </trkpt>
      <trkpt lat="38.482387" lon="-0.408996">
        <ele>244.7</ele>
        <time>2019-10-03T13:18:37Z</time>
      </trkpt>
      <trkpt lat="38.482294" lon="-0.409133">
        <ele>244.2</ele>
        <time>2019-10-03T13:18:39Z</time>
      </trkpt>
      <trkpt lat="38.482208" lon="-0.409279">
        <ele>243.4</ele>
        <time>2019-10-03T13:18:41Z</time>
      </trkpt>
      <trkpt lat="38.482118" lon="-0.409426">
        <ele>242.7</ele>
        <time>2019-10-03T13:18:43Z</time>
      </trkpt>
      <trkpt lat="38.482033" lon="-0.409580">
        <ele>242.0</ele>
        <time>2019-10-03T13:18:45Z</time>
      </trkpt>
      <trkpt lat="38.481950" lon="-0.409722">
        <ele>241.5</ele>
        <time>2019-10-03T13:18:47Z</time>
      </trkpt>
      <trkpt lat="38.481879" lon="-0.409870">
        <ele>241.0</ele>
        <time>2019-10-03T13:18:49Z</time>
      </trkpt>
      <trkpt lat="38.481808" lon="-0.410015">
        <ele>240.2</ele>
        <time>2019-10-03T13:18:51Z</time>
      </trkpt>
      <trkpt lat="38.481745" lon="-0.410126">
        <ele>239.3</ele>
        <time>2019-10-03T13:18:53Z</time>
      </trkpt>
      <trkpt lat="38.481671" lon="-0.410232">
        <ele>236.2</ele>
        <time>2019-10-03T13:19:17Z</time>
      </trkpt>
      <trkpt lat="38.481582" lon="-0.410302">
        <ele>236.1</ele>
        <time>2019-10-03T13:19:19Z</time>
      </trkpt>
      <trkpt lat="38.481476" lon="-0.410390">
        <ele>236.2</ele>
        <time>2019-10-03T13:19:21Z</time>
      </trkpt>
      <trkpt lat="38.481365" lon="-0.410505">
        <ele>236.4</ele>
        <time>2019-10-03T13:19:23Z</time>
      </trkpt>
      <trkpt lat="38.481245" lon="-0.410639">
        <ele>236.3</ele>
        <time>2019-10-03T13:19:25Z</time>
      </trkpt>
      <trkpt lat="38.481117" lon="-0.410764">
        <ele>236.4</ele>
        <time>2019-10-03T13:19:27Z</time>
      </trkpt>
      <trkpt lat="38.480975" lon="-0.410838">
        <ele>236.4</ele>
        <time>2019-10-03T13:19:29Z</time>
      </trkpt>
      <trkpt lat="38.480820" lon="-0.410872">
        <ele>236.2</ele>
        <time>2019-10-03T13:19:31Z</time>
      </trkpt>
      <trkpt lat="38.480667" lon="-0.410920">
        <ele>235.5</ele>
        <time>2019-10-03T13:19:33Z</time>
      </trkpt>
      <trkpt lat="38.480523" lon="-0.411000">
        <ele>234.8</ele>
        <time>2019-10-03T13:19:35Z</time>
      </trkpt>
      <trkpt lat="38.480385" lon="-0.411090">
        <ele>234.6</ele>
        <time>2019-10-03T13:19:37Z</time>
      </trkpt>
      <trkpt lat="38.480237" lon="-0.411171">
        <ele>234.6</ele>
        <time>2019-10-03T13:19:39Z</time>
      </trkpt>
      <trkpt lat="38.480097" lon="-0.411252">
        <ele>234.5</ele>
        <time>2019-10-03T13:19:41Z</time>
      </trkpt>
      <trkpt lat="38.479962" lon="-0.411341">
        <ele>234.2</ele>
        <time>2019-10-03T13:19:43Z</time>
      </trkpt>
      <trkpt lat="38.479452" lon="-0.411662">
        <ele>234.1</ele>
        <time>2019-10-03T13:19:50Z</time>
      </trkpt>
      <trkpt lat="38.479308" lon="-0.411723">
        <ele>234.0</ele>
        <time>2019-10-03T13:19:52Z</time>
      </trkpt>
      <trkpt lat="38.479172" lon="-0.411760">
        <ele>233.6</ele>
        <time>2019-10-03T13:19:54Z</time>
      </trkpt>
      <trkpt lat="38.479047" lon="-0.411821">
        <ele>233.4</ele>
        <time>2019-10-03T13:19:56Z</time>
      </trkpt>
      <trkpt lat="38.478975" lon="-0.411914">
        <ele>233.1</ele>
        <time>2019-10-03T13:19:59Z</time>
      </trkpt>
      <trkpt lat="38.478911" lon="-0.412019">
        <ele>233.2</ele>
        <time>2019-10-03T13:20:34Z</time>
      </trkpt>
      <trkpt lat="38.478866" lon="-0.412142">
        <ele>233.0</ele>
        <time>2019-10-03T13:20:36Z</time>
      </trkpt>
      <trkpt lat="38.478794" lon="-0.412281">
        <ele>232.4</ele>
        <time>2019-10-03T13:20:38Z</time>
      </trkpt>
      <trkpt lat="38.478676" lon="-0.412389">
        <ele>231.8</ele>
        <time>2019-10-03T13:20:40Z</time>
      </trkpt>
      <trkpt lat="38.478529" lon="-0.412459">
        <ele>231.1</ele>
        <time>2019-10-03T13:20:42Z</time>
      </trkpt>
      <trkpt lat="38.478389" lon="-0.412536">
        <ele>230.3</ele>
        <time>2019-10-03T13:20:44Z</time>
      </trkpt>
      <trkpt lat="38.478249" lon="-0.412616">
        <ele>229.4</ele>
        <time>2019-10-03T13:20:46Z</time>
      </trkpt>
      <trkpt lat="38.478112" lon="-0.412685">
        <ele>228.9</ele>
        <time>2019-10-03T13:20:48Z</time>
      </trkpt>
      <trkpt lat="38.477983" lon="-0.412728">
        <ele>228.7</ele>
        <time>2019-10-03T13:20:50Z</time>
      </trkpt>
      <trkpt lat="38.477847" lon="-0.412706">
        <ele>228.5</ele>
        <time>2019-10-03T13:20:52Z</time>
      </trkpt>
      <trkpt lat="38.477697" lon="-0.412651">
        <ele>228.9</ele>
        <time>2019-10-03T13:20:54Z</time>
      </trkpt>
      <trkpt lat="38.477564" lon="-0.412687">
        <ele>228.9</ele>
        <time>2019-10-03T13:20:56Z</time>
      </trkpt>
      <trkpt lat="38.477508" lon="-0.412837">
        <ele>228.2</ele>
        <time>2019-10-03T13:20:58Z</time>
      </trkpt>
      <trkpt lat="38.477515" lon="-0.412990">
        <ele>227.6</ele>
        <time>2019-10-03T13:21:00Z</time>
      </trkpt>
      <trkpt lat="38.477613" lon="-0.413073">
        <ele>226.2</ele>
        <time>2019-10-03T13:21:45Z</time>
      </trkpt>
      <trkpt lat="38.477697" lon="-0.413197">
        <ele>226.2</ele>
        <time>2019-10-03T13:21:47Z</time>
      </trkpt>
      <trkpt lat="38.477742" lon="-0.413343">
        <ele>226.7</ele>
        <time>2019-10-03T13:21:49Z</time>
      </trkpt>
      <trkpt lat="38.477703" lon="-0.413475">
        <ele>226.7</ele>
        <time>2019-10-03T13:21:51Z</time>
      </trkpt>
      <trkpt lat="38.477583" lon="-0.413533">
        <ele>227.3</ele>
        <time>2019-10-03T13:21:53Z</time>
      </trkpt>
      <trkpt lat="38.477459" lon="-0.413472">
        <ele>227.4</ele>
        <time>2019-10-03T13:21:55Z</time>
      </trkpt>
      <trkpt lat="38.477331" lon="-0.413444">
        <ele>227.0</ele>
        <time>2019-10-03T13:21:57Z</time>
      </trkpt>
      <trkpt lat="38.477221" lon="-0.413509">
        <ele>226.9</ele>
        <time>2019-10-03T13:21:59Z</time>
      </trkpt>
      <trkpt lat="38.477128" lon="-0.413635">
        <ele>227.4</ele>
        <time>2019-10-03T13:22:01Z</time>
      </trkpt>
      <trkpt lat="38.477040" lon="-0.413768">
        <ele>228.1</ele>
        <time>2019-10-03T13:22:03Z</time>
      </trkpt>
      <trkpt lat="38.476962" lon="-0.413898">
        <ele>228.6</ele>
        <time>2019-10-03T13:22:05Z</time>
      </trkpt>
      <trkpt lat="38.476919" lon="-0.414023">
        <ele>228.7</ele>
        <time>2019-10-03T13:22:07Z</time>
      </trkpt>
      <trkpt lat="38.476874" lon="-0.414137">
        <ele>228.5</ele>
        <time>2019-10-03T13:23:23Z</time>
      </trkpt>
      <trkpt lat="38.476783" lon="-0.414124">
        <ele>228.6</ele>
        <time>2019-10-03T13:23:26Z</time>
      </trkpt>
      <trkpt lat="38.476693" lon="-0.414106">
        <ele>228.8</ele>
        <time>2019-10-03T13:23:28Z</time>
      </trkpt>
      <trkpt lat="38.476589" lon="-0.414123">
        <ele>229.0</ele>
        <time>2019-10-03T13:23:30Z</time>
      </trkpt>
      <trkpt lat="38.476487" lon="-0.414203">
        <ele>228.9</ele>
        <time>2019-10-03T13:23:32Z</time>
      </trkpt>
      <trkpt lat="38.476385" lon="-0.414288">
        <ele>228.5</ele>
        <time>2019-10-03T13:23:34Z</time>
      </trkpt>
      <trkpt lat="38.476271" lon="-0.414341">
        <ele>228.2</ele>
        <time>2019-10-03T13:23:36Z</time>
      </trkpt>
      <trkpt lat="38.476151" lon="-0.414373">
        <ele>227.6</ele>
        <time>2019-10-03T13:23:38Z</time>
      </trkpt>
      <trkpt lat="38.476012" lon="-0.414384">
        <ele>227.3</ele>
        <time>2019-10-03T13:23:40Z</time>
      </trkpt>
      <trkpt lat="38.475890" lon="-0.414383">
        <ele>226.8</ele>
        <time>2019-10-03T13:23:42Z</time>
      </trkpt>
      <trkpt lat="38.475785" lon="-0.414348">
        <ele>226.0</ele>
        <time>2019-10-03T13:23:44Z</time>
      </trkpt>
      <trkpt lat="38.475668" lon="-0.413541">
        <ele>222.4</ele>
        <time>2019-10-03T13:23:54Z</time>
      </trkpt>
      <trkpt lat="38.475709" lon="-0.413403">
        <ele>219.7</ele>
        <time>2019-10-03T13:23:56Z</time>
      </trkpt>
      <trkpt lat="38.475747" lon="-0.413295">
        <ele>217.9</ele>
        <time>2019-10-03T13:23:58Z</time>
      </trkpt>
      <trkpt lat="38.475774" lon="-0.413177">
        <ele>216.3</ele>
        <time>2019-10-03T13:24:00Z</time>
      </trkpt>
      <trkpt lat="38.475807" lon="-0.413020">
        <ele>215.1</ele>
        <time>2019-10-03T13:24:02Z</time>
      </trkpt>
      <trkpt lat="38.475842" lon="-0.412819">
        <ele>213.9</ele>
        <time>2019-10-03T13:24:04Z</time>
      </trkpt>
      <trkpt lat="38.475859" lon="-0.412706">
        <ele>213.4</ele>
        <time>2019-10-03T13:24:05Z</time>
      </trkpt>
      <trkpt lat="38.475887" lon="-0.412483">
        <ele>212.7</ele>
        <time>2019-10-03T13:24:07Z</time>
      </trkpt>
      <trkpt lat="38.475919" lon="-0.412269">
        <ele>212.2</ele>
        <time>2019-10-03T13:24:09Z</time>
      </trkpt>
      <trkpt lat="38.475944" lon="-0.412058">
        <ele>211.5</ele>
        <time>2019-10-03T13:24:11Z</time>
      </trkpt>
      <trkpt lat="38.475961" lon="-0.411860">
        <ele>210.8</ele>
        <time>2019-10-03T13:24:13Z</time>
      </trkpt>
      <trkpt lat="38.475959" lon="-0.411664">
        <ele>209.9</ele>
        <time>2019-10-03T13:24:15Z</time>
      </trkpt>
      <trkpt lat="38.475948" lon="-0.411485">
        <ele>209.2</ele>
        <time>2019-10-03T13:24:17Z</time>
      </trkpt>
      <trkpt lat="38.475959" lon="-0.411328">
        <ele>208.4</ele>
        <time>2019-10-03T13:24:20Z</time>
      </trkpt>
      <trkpt lat="38.475956" lon="-0.411171">
        <ele>207.7</ele>
        <time>2019-10-03T13:24:22Z</time>
      </trkpt>
      <trkpt lat="38.475934" lon="-0.411001">
        <ele>206.9</ele>
        <time>2019-10-03T13:24:24Z</time>
      </trkpt>
      <trkpt lat="38.475870" lon="-0.410880">
        <ele>206.0</ele>
        <time>2019-10-03T13:24:26Z</time>
      </trkpt>
      <trkpt lat="38.475983" lon="-0.411219">
        <ele>205.1</ele>
        <time>2019-10-03T13:24:55Z</time>
      </trkpt>
      <trkpt lat="38.475919" lon="-0.411014">
        <ele>204.3</ele>
        <time>2019-10-03T13:24:58Z</time>
      </trkpt>
      <trkpt lat="38.475927" lon="-0.411138">
        <ele>206.9</ele>
        <time>2019-10-03T13:25:03Z</time>
      </trkpt>
      <trkpt lat="38.475937" lon="-0.411266">
        <ele>205.6</ele>
        <time>2019-10-03T13:25:08Z</time>
      </trkpt>
      <trkpt lat="38.475916" lon="-0.411143">
        <ele>204.3</ele>
        <time>2019-10-03T13:25:25Z</time>
      </trkpt>
      <trkpt lat="38.475899" lon="-0.410978">
        <ele>204.2</ele>
        <time>2019-10-03T13:25:28Z</time>
      </trkpt>
      <trkpt lat="38.475829" lon="-0.410832">
        <ele>203.9</ele>
        <time>2019-10-03T13:25:31Z</time>
      </trkpt>
      <trkpt lat="38.475735" lon="-0.410756">
        <ele>203.5</ele>
        <time>2019-10-03T13:25:33Z</time>
      </trkpt>
      <trkpt lat="38.475617" lon="-0.410704">
        <ele>203.0</ele>
        <time>2019-10-03T13:25:35Z</time>
      </trkpt>
      <trkpt lat="38.475506" lon="-0.410676">
        <ele>202.6</ele>
        <time>2019-10-03T13:25:37Z</time>
      </trkpt>
      <trkpt lat="38.475385" lon="-0.410634">
        <ele>201.5</ele>
        <time>2019-10-03T13:25:40Z</time>
      </trkpt>
      <trkpt lat="38.475294" lon="-0.410602">
        <ele>200.8</ele>
        <time>2019-10-03T13:25:44Z</time>
      </trkpt>
      <trkpt lat="38.475286" lon="-0.410602">
        <ele>200.7</ele>
        <time>2019-10-03T13:26:37Z</time>
      </trkpt>
      <trkpt lat="38.475339" lon="-0.410675">
        <ele>186.3</ele>
        <time>2019-10-03T13:36:22Z</time>
      </trkpt>
      <trkpt lat="38.475339" lon="-0.410675">
        <ele>186.3</ele>
        <time>2019-10-03T13:36:23Z</time>
      </trkpt>
      <trkpt lat="38.475242" lon="-0.410693">
        <ele>187.7</ele>
        <time>2019-10-03T13:36:29Z</time>
      </trkpt>
      <trkpt lat="38.475166" lon="-0.410762">
        <ele>188.7</ele>
        <time>2019-10-03T13:36:31Z</time>
      </trkpt>
      <trkpt lat="38.475076" lon="-0.410894">
        <ele>189.8</ele>
        <time>2019-10-03T13:36:33Z</time>
      </trkpt>
      <trkpt lat="38.474971" lon="-0.411066">
        <ele>190.5</ele>
        <time>2019-10-03T13:36:35Z</time>
      </trkpt>
      <trkpt lat="38.474902" lon="-0.411169">
        <ele>191.0</ele>
        <time>2019-10-03T13:36:36Z</time>
      </trkpt>
      <trkpt lat="38.474827" lon="-0.411280">
        <ele>191.3</ele>
        <time>2019-10-03T13:36:37Z</time>
      </trkpt>
      <trkpt lat="38.474735" lon="-0.411395">
        <ele>191.6</ele>
        <time>2019-10-03T13:36:38Z</time>
      </trkpt>
      <trkpt lat="38.474626" lon="-0.411515">
        <ele>192.0</ele>
        <time>2019-10-03T13:36:39Z</time>
      </trkpt>
      <trkpt lat="38.474499" lon="-0.411639">
        <ele>192.4</ele>
        <time>2019-10-03T13:36:40Z</time>
      </trkpt>
      <trkpt lat="38.474368" lon="-0.411758">
        <ele>192.9</ele>
        <time>2019-10-03T13:36:41Z</time>
      </trkpt>
      <trkpt lat="38.474226" lon="-0.411864">
        <ele>193.2</ele>
        <time>2019-10-03T13:36:42Z</time>
      </trkpt>
      <trkpt lat="38.474073" lon="-0.411948">
        <ele>193.5</ele>
        <time>2019-10-03T13:36:43Z</time>
      </trkpt>
      <trkpt lat="38.473917" lon="-0.412013">
        <ele>193.7</ele>
        <time>2019-10-03T13:36:44Z</time>
      </trkpt>
      <trkpt lat="38.473767" lon="-0.412066">
        <ele>193.7</ele>
        <time>2019-10-03T13:36:45Z</time>
      </trkpt>
      <trkpt lat="38.473621" lon="-0.412109">
        <ele>193.7</ele>
        <time>2019-10-03T13:36:46Z</time>
      </trkpt>
      <trkpt lat="38.473484" lon="-0.412148">
        <ele>193.6</ele>
        <time>2019-10-03T13:36:47Z</time>
      </trkpt>
      <trkpt lat="38.473354" lon="-0.412186">
        <ele>193.4</ele>
        <time>2019-10-03T13:36:48Z</time>
      </trkpt>
      <trkpt lat="38.473230" lon="-0.412210">
        <ele>193.5</ele>
        <time>2019-10-03T13:36:49Z</time>
      </trkpt>
      <trkpt lat="38.473101" lon="-0.412209">
        <ele>193.6</ele>
        <time>2019-10-03T13:36:50Z</time>
      </trkpt>
      <trkpt lat="38.472967" lon="-0.412195">
        <ele>193.7</ele>
        <time>2019-10-03T13:36:51Z</time>
      </trkpt>
      <trkpt lat="38.472836" lon="-0.412181">
        <ele>194.1</ele>
        <time>2019-10-03T13:36:52Z</time>
      </trkpt>
      <trkpt lat="38.472716" lon="-0.412181">
        <ele>194.4</ele>
        <time>2019-10-03T13:36:53Z</time>
      </trkpt>
      <trkpt lat="38.472609" lon="-0.412202">
        <ele>194.7</ele>
        <time>2019-10-03T13:36:54Z</time>
      </trkpt>
      <trkpt lat="38.472478" lon="-0.412299">
        <ele>195.0</ele>
        <time>2019-10-03T13:36:56Z</time>
      </trkpt>
      <trkpt lat="38.472443" lon="-0.412455">
        <ele>195.2</ele>
        <time>2019-10-03T13:37:01Z</time>
      </trkpt>
      <trkpt lat="38.472456" lon="-0.412610">
        <ele>194.3</ele>
        <time>2019-10-03T13:37:24Z</time>
      </trkpt>
      <trkpt lat="38.472513" lon="-0.412780">
        <ele>193.5</ele>
        <time>2019-10-03T13:37:26Z</time>
      </trkpt>
      <trkpt lat="38.472539" lon="-0.412890">
        <ele>193.1</ele>
        <time>2019-10-03T13:37:27Z</time>
      </trkpt>
      <trkpt lat="38.472558" lon="-0.413020">
        <ele>192.8</ele>
        <time>2019-10-03T13:37:28Z</time>
      </trkpt>
      <trkpt lat="38.472572" lon="-0.413170">
        <ele>192.8</ele>
        <time>2019-10-03T13:37:29Z</time>
      </trkpt>
      <trkpt lat="38.472577" lon="-0.413334">
        <ele>192.7</ele>
        <time>2019-10-03T13:37:30Z</time>
      </trkpt>
      <trkpt lat="38.472580" lon="-0.413507">
        <ele>192.8</ele>
        <time>2019-10-03T13:37:31Z</time>
      </trkpt>
      <trkpt lat="38.472586" lon="-0.413696">
        <ele>193.0</ele>
        <time>2019-10-03T13:37:32Z</time>
      </trkpt>
      <trkpt lat="38.472589" lon="-0.413900">
        <ele>193.5</ele>
        <time>2019-10-03T13:37:33Z</time>
      </trkpt>
      <trkpt lat="38.472602" lon="-0.414111">
        <ele>194.0</ele>
        <time>2019-10-03T13:37:34Z</time>
      </trkpt>
      <trkpt lat="38.472626" lon="-0.414327">
        <ele>194.3</ele>
        <time>2019-10-03T13:37:35Z</time>
      </trkpt>
      <trkpt lat="38.472663" lon="-0.414541">
        <ele>194.7</ele>
        <time>2019-10-03T13:37:36Z</time>
      </trkpt>
      <trkpt lat="38.472710" lon="-0.414751">
        <ele>195.3</ele>
        <time>2019-10-03T13:37:37Z</time>
      </trkpt>
      <trkpt lat="38.472772" lon="-0.414953">
        <ele>195.9</ele>
        <time>2019-10-03T13:37:38Z</time>
      </trkpt>
      <trkpt lat="38.472838" lon="-0.415159">
        <ele>196.6</ele>
        <time>2019-10-03T13:37:39Z</time>
      </trkpt>
      <trkpt lat="38.472904" lon="-0.415363">
        <ele>197.3</ele>
        <time>2019-10-03T13:37:40Z</time>
      </trkpt>
      <trkpt lat="38.472967" lon="-0.415564">
        <ele>198.0</ele>
        <time>2019-10-03T13:37:41Z</time>
      </trkpt>
      <trkpt lat="38.473033" lon="-0.415768">
        <ele>198.7</ele>
        <time>2019-10-03T13:37:42Z</time>
      </trkpt>
      <trkpt lat="38.473101" lon="-0.415977">
        <ele>199.5</ele>
        <time>2019-10-03T13:37:43Z</time>
      </trkpt>
      <trkpt lat="38.473169" lon="-0.416193">
        <ele>200.3</ele>
        <time>2019-10-03T13:37:44Z</time>
      </trkpt>
      <trkpt lat="38.473239" lon="-0.416416">
        <ele>201.3</ele>
        <time>2019-10-03T13:37:45Z</time>
      </trkpt>
      <trkpt lat="38.473307" lon="-0.416641">
        <ele>202.6</ele>
        <time>2019-10-03T13:37:46Z</time>
      </trkpt>
      <trkpt lat="38.473372" lon="-0.416859">
        <ele>203.8</ele>
        <time>2019-10-03T13:37:47Z</time>
      </trkpt>
      <trkpt lat="38.473432" lon="-0.417060">
        <ele>205.0</ele>
        <time>2019-10-03T13:37:48Z</time>
      </trkpt>
      <trkpt lat="38.473489" lon="-0.417243">
        <ele>206.3</ele>
        <time>2019-10-03T13:37:49Z</time>
      </trkpt>
      <trkpt lat="38.473547" lon="-0.417414">
        <ele>207.5</ele>
        <time>2019-10-03T13:37:50Z</time>
      </trkpt>
      <trkpt lat="38.473606" lon="-0.417576">
        <ele>208.8</ele>
        <time>2019-10-03T13:37:51Z</time>
      </trkpt>
      <trkpt lat="38.473667" lon="-0.417732">
        <ele>210.4</ele>
        <time>2019-10-03T13:37:52Z</time>
      </trkpt>
      <trkpt lat="38.473712" lon="-0.417882">
        <ele>211.8</ele>
        <time>2019-10-03T13:37:53Z</time>
      </trkpt>
      <trkpt lat="38.473732" lon="-0.418037">
        <ele>213.0</ele>
        <time>2019-10-03T13:37:54Z</time>
      </trkpt>
      <trkpt lat="38.473724" lon="-0.418193">
        <ele>214.2</ele>
        <time>2019-10-03T13:37:55Z</time>
      </trkpt>
      <trkpt lat="38.473695" lon="-0.418354">
        <ele>215.5</ele>
        <time>2019-10-03T13:37:56Z</time>
      </trkpt>
      <trkpt lat="38.473664" lon="-0.418519">
        <ele>217.1</ele>
        <time>2019-10-03T13:37:57Z</time>
      </trkpt>
      <trkpt lat="38.473632" lon="-0.418687">
        <ele>218.6</ele>
        <time>2019-10-03T13:37:58Z</time>
      </trkpt>
      <trkpt lat="38.473602" lon="-0.418862">
        <ele>220.1</ele>
        <time>2019-10-03T13:37:59Z</time>
      </trkpt>
      <trkpt lat="38.473573" lon="-0.419041">
        <ele>221.3</ele>
        <time>2019-10-03T13:38:00Z</time>
      </trkpt>
      <trkpt lat="38.473548" lon="-0.419227">
        <ele>222.4</ele>
        <time>2019-10-03T13:38:01Z</time>
      </trkpt>
      <trkpt lat="38.473523" lon="-0.419420">
        <ele>223.6</ele>
        <time>2019-10-03T13:38:02Z</time>
      </trkpt>
      <trkpt lat="38.473502" lon="-0.419616">
        <ele>224.7</ele>
        <time>2019-10-03T13:38:03Z</time>
      </trkpt>
      <trkpt lat="38.473484" lon="-0.419816">
        <ele>225.9</ele>
        <time>2019-10-03T13:38:04Z</time>
      </trkpt>
      <trkpt lat="38.473476" lon="-0.420025">
        <ele>227.2</ele>
        <time>2019-10-03T13:38:05Z</time>
      </trkpt>
      <trkpt lat="38.473470" lon="-0.420242">
        <ele>228.6</ele>
        <time>2019-10-03T13:38:06Z</time>
      </trkpt>
      <trkpt lat="38.473467" lon="-0.420464">
        <ele>230.1</ele>
        <time>2019-10-03T13:38:07Z</time>
      </trkpt>
      <trkpt lat="38.473462" lon="-0.420688">
        <ele>231.6</ele>
        <time>2019-10-03T13:38:08Z</time>
      </trkpt>
      <trkpt lat="38.473455" lon="-0.420903">
        <ele>233.0</ele>
        <time>2019-10-03T13:38:09Z</time>
      </trkpt>
      <trkpt lat="38.473447" lon="-0.421105">
        <ele>234.5</ele>
        <time>2019-10-03T13:38:10Z</time>
      </trkpt>
      <trkpt lat="38.473435" lon="-0.421296">
        <ele>235.9</ele>
        <time>2019-10-03T13:38:11Z</time>
      </trkpt>
      <trkpt lat="38.473421" lon="-0.421474">
        <ele>237.2</ele>
        <time>2019-10-03T13:38:12Z</time>
      </trkpt>
      <trkpt lat="38.473406" lon="-0.421641">
        <ele>238.5</ele>
        <time>2019-10-03T13:38:13Z</time>
      </trkpt>
      <trkpt lat="38.473391" lon="-0.421798">
        <ele>239.6</ele>
        <time>2019-10-03T13:38:14Z</time>
      </trkpt>
      <trkpt lat="38.473379" lon="-0.421939">
        <ele>240.9</ele>
        <time>2019-10-03T13:38:15Z</time>
      </trkpt>
      <trkpt lat="38.473369" lon="-0.422064">
        <ele>242.0</ele>
        <time>2019-10-03T13:38:16Z</time>
      </trkpt>
      <trkpt lat="38.473363" lon="-0.422255">
        <ele>244.1</ele>
        <time>2019-10-03T13:38:18Z</time>
      </trkpt>
      <trkpt lat="38.473372" lon="-0.422371">
        <ele>246.2</ele>
        <time>2019-10-03T13:38:20Z</time>
      </trkpt>
      <trkpt lat="38.473430" lon="-0.422537">
        <ele>249.8</ele>
        <time>2019-10-03T13:38:52Z</time>
      </trkpt>
      <trkpt lat="38.473470" lon="-0.422719">
        <ele>250.3</ele>
        <time>2019-10-03T13:38:54Z</time>
      </trkpt>
      <trkpt lat="38.473509" lon="-0.422959">
        <ele>250.6</ele>
        <time>2019-10-03T13:38:56Z</time>
      </trkpt>
      <trkpt lat="38.473546" lon="-0.423100">
        <ele>250.7</ele>
        <time>2019-10-03T13:38:57Z</time>
      </trkpt>
      <trkpt lat="38.473606" lon="-0.423242">
        <ele>250.8</ele>
        <time>2019-10-03T13:38:58Z</time>
      </trkpt>
      <trkpt lat="38.473692" lon="-0.423365">
        <ele>251.1</ele>
        <time>2019-10-03T13:38:59Z</time>
      </trkpt>
      <trkpt lat="38.473809" lon="-0.423483">
        <ele>251.5</ele>
        <time>2019-10-03T13:39:00Z</time>
      </trkpt>
      <trkpt lat="38.473937" lon="-0.423598">
        <ele>251.9</ele>
        <time>2019-10-03T13:39:01Z</time>
      </trkpt>
      <trkpt lat="38.474072" lon="-0.423723">
        <ele>252.3</ele>
        <time>2019-10-03T13:39:02Z</time>
      </trkpt>
      <trkpt lat="38.474211" lon="-0.423860">
        <ele>252.8</ele>
        <time>2019-10-03T13:39:03Z</time>
      </trkpt>
      <trkpt lat="38.474347" lon="-0.423998">
        <ele>253.2</ele>
        <time>2019-10-03T13:39:04Z</time>
      </trkpt>
      <trkpt lat="38.474485" lon="-0.424135">
        <ele>253.7</ele>
        <time>2019-10-03T13:39:05Z</time>
      </trkpt>
      <trkpt lat="38.474627" lon="-0.424278">
        <ele>254.1</ele>
        <time>2019-10-03T13:39:06Z</time>
      </trkpt>
      <trkpt lat="38.474771" lon="-0.424424">
        <ele>254.6</ele>
        <time>2019-10-03T13:39:07Z</time>
      </trkpt>
      <trkpt lat="38.474905" lon="-0.424565">
        <ele>255.0</ele>
        <time>2019-10-03T13:39:08Z</time>
      </trkpt>
      <trkpt lat="38.475037" lon="-0.424697">
        <ele>255.5</ele>
        <time>2019-10-03T13:39:09Z</time>
      </trkpt>
      <trkpt lat="38.475167" lon="-0.424803">
        <ele>256.0</ele>
        <time>2019-10-03T13:39:10Z</time>
      </trkpt>
      <trkpt lat="38.475301" lon="-0.424856">
        <ele>256.6</ele>
        <time>2019-10-03T13:39:11Z</time>
      </trkpt>
      <trkpt lat="38.475443" lon="-0.424850">
        <ele>257.1</ele>
        <time>2019-10-03T13:39:12Z</time>
      </trkpt>
      <trkpt lat="38.475594" lon="-0.424819">
        <ele>257.7</ele>
        <time>2019-10-03T13:39:13Z</time>
      </trkpt>
      <trkpt lat="38.475748" lon="-0.424798">
        <ele>258.7</ele>
        <time>2019-10-03T13:39:14Z</time>
      </trkpt>
      <trkpt lat="38.475903" lon="-0.424790">
        <ele>259.6</ele>
        <time>2019-10-03T13:39:15Z</time>
      </trkpt>
      <trkpt lat="38.476064" lon="-0.424797">
        <ele>260.5</ele>
        <time>2019-10-03T13:39:16Z</time>
      </trkpt>
      <trkpt lat="38.476231" lon="-0.424802">
        <ele>261.2</ele>
        <time>2019-10-03T13:39:17Z</time>
      </trkpt>
      <trkpt lat="38.476398" lon="-0.424773">
        <ele>261.9</ele>
        <time>2019-10-03T13:39:18Z</time>
      </trkpt>
      <trkpt lat="38.476559" lon="-0.424701">
        <ele>262.6</ele>
        <time>2019-10-03T13:39:19Z</time>
      </trkpt>
      <trkpt lat="38.476726" lon="-0.424590">
        <ele>263.4</ele>
        <time>2019-10-03T13:39:20Z</time>
      </trkpt>
      <trkpt lat="38.476897" lon="-0.424466">
        <ele>264.3</ele>
        <time>2019-10-03T13:39:21Z</time>
      </trkpt>
      <trkpt lat="38.477060" lon="-0.424356">
        <ele>265.2</ele>
        <time>2019-10-03T13:39:22Z</time>
      </trkpt>
      <trkpt lat="38.477213" lon="-0.424250">
        <ele>266.3</ele>
        <time>2019-10-03T13:39:23Z</time>
      </trkpt>
      <trkpt lat="38.477360" lon="-0.424151">
        <ele>267.3</ele>
        <time>2019-10-03T13:39:24Z</time>
      </trkpt>
      <trkpt lat="38.477497" lon="-0.424075">
        <ele>268.6</ele>
        <time>2019-10-03T13:39:25Z</time>
      </trkpt>
      <trkpt lat="38.477631" lon="-0.424031">
        <ele>269.7</ele>
        <time>2019-10-03T13:39:26Z</time>
      </trkpt>
      <trkpt lat="38.477764" lon="-0.424009">
        <ele>270.6</ele>
        <time>2019-10-03T13:39:27Z</time>
      </trkpt>
      <trkpt lat="38.477893" lon="-0.423995">
        <ele>271.3</ele>
        <time>2019-10-03T13:39:28Z</time>
      </trkpt>
      <trkpt lat="38.478015" lon="-0.423986">
        <ele>271.9</ele>
        <time>2019-10-03T13:39:29Z</time>
      </trkpt>
      <trkpt lat="38.478125" lon="-0.423975">
        <ele>272.5</ele>
        <time>2019-10-03T13:39:30Z</time>
      </trkpt>
      <trkpt lat="38.478219" lon="-0.423951">
        <ele>272.9</ele>
        <time>2019-10-03T13:39:31Z</time>
      </trkpt>
      <trkpt lat="38.478345" lon="-0.423897">
        <ele>273.8</ele>
        <time>2019-10-03T13:39:33Z</time>
      </trkpt>
      <trkpt lat="38.478408" lon="-0.423771">
        <ele>274.9</ele>
        <time>2019-10-03T13:39:44Z</time>
      </trkpt>
      <trkpt lat="38.478461" lon="-0.423660">
        <ele>274.6</ele>
        <time>2019-10-03T13:39:46Z</time>
      </trkpt>
      <trkpt lat="38.478539" lon="-0.423564">
        <ele>274.4</ele>
        <time>2019-10-03T13:39:48Z</time>
      </trkpt>
      <trkpt lat="38.478651" lon="-0.423533">
        <ele>274.5</ele>
        <time>2019-10-03T13:39:50Z</time>
      </trkpt>
      <trkpt lat="38.478778" lon="-0.423553">
        <ele>274.4</ele>
        <time>2019-10-03T13:39:52Z</time>
      </trkpt>
      <trkpt lat="38.478883" lon="-0.423628">
        <ele>274.0</ele>
        <time>2019-10-03T13:39:54Z</time>
      </trkpt>
      <trkpt lat="38.478950" lon="-0.423720">
        <ele>273.5</ele>
        <time>2019-10-03T13:39:56Z</time>
      </trkpt>
      <trkpt lat="38.478939" lon="-0.423882">
        <ele>273.3</ele>
        <time>2019-10-03T13:40:24Z</time>
      </trkpt>
      <trkpt lat="38.478934" lon="-0.424038">
        <ele>273.1</ele>
        <time>2019-10-03T13:40:26Z</time>
      </trkpt>
      <trkpt lat="38.478995" lon="-0.424230">
        <ele>272.8</ele>
        <time>2019-10-03T13:40:28Z</time>
      </trkpt>
      <trkpt lat="38.479057" lon="-0.424329">
        <ele>272.6</ele>
        <time>2019-10-03T13:40:29Z</time>
      </trkpt>
      <trkpt lat="38.479143" lon="-0.424411">
        <ele>272.3</ele>
        <time>2019-10-03T13:40:30Z</time>
      </trkpt>
      <trkpt lat="38.479245" lon="-0.424482">
        <ele>272.0</ele>
        <time>2019-10-03T13:40:31Z</time>
      </trkpt>
      <trkpt lat="38.479371" lon="-0.424541">
        <ele>271.8</ele>
        <time>2019-10-03T13:40:32Z</time>
      </trkpt>
      <trkpt lat="38.479523" lon="-0.424589">
        <ele>271.8</ele>
        <time>2019-10-03T13:40:33Z</time>
      </trkpt>
      <trkpt lat="38.479695" lon="-0.424625">
        <ele>271.8</ele>
        <time>2019-10-03T13:40:34Z</time>
      </trkpt>
      <trkpt lat="38.479877" lon="-0.424657">
        <ele>271.9</ele>
        <time>2019-10-03T13:40:35Z</time>
      </trkpt>
      <trkpt lat="38.480066" lon="-0.424684">
        <ele>272.0</ele>
        <time>2019-10-03T13:40:36Z</time>
      </trkpt>
      <trkpt lat="38.480264" lon="-0.424704">
        <ele>272.0</ele>
        <time>2019-10-03T13:40:37Z</time>
      </trkpt>
      <trkpt lat="38.480462" lon="-0.424713">
        <ele>271.9</ele>
        <time>2019-10-03T13:40:38Z</time>
      </trkpt>
      <trkpt lat="38.480653" lon="-0.424704">
        <ele>271.7</ele>
        <time>2019-10-03T13:40:39Z</time>
      </trkpt>
      <trkpt lat="38.480844" lon="-0.424678">
        <ele>271.6</ele>
        <time>2019-10-03T13:40:40Z</time>
      </trkpt>
      <trkpt lat="38.481035" lon="-0.424636">
        <ele>271.7</ele>
        <time>2019-10-03T13:40:41Z</time>
      </trkpt>
      <trkpt lat="38.481230" lon="-0.424574">
        <ele>271.7</ele>
        <time>2019-10-03T13:40:42Z</time>
      </trkpt>
      <trkpt lat="38.481426" lon="-0.424491">
        <ele>271.8</ele>
        <time>2019-10-03T13:40:43Z</time>
      </trkpt>
      <trkpt lat="38.481625" lon="-0.424383">
        <ele>271.9</ele>
        <time>2019-10-03T13:40:44Z</time>
      </trkpt>
      <trkpt lat="38.481826" lon="-0.424261">
        <ele>272.0</ele>
        <time>2019-10-03T13:40:45Z</time>
      </trkpt>
      <trkpt lat="38.482026" lon="-0.424119">
        <ele>272.1</ele>
        <time>2019-10-03T13:40:46Z</time>
      </trkpt>
      <trkpt lat="38.482222" lon="-0.423963">
        <ele>272.0</ele>
        <time>2019-10-03T13:40:47Z</time>
      </trkpt>
      <trkpt lat="38.482413" lon="-0.423802">
        <ele>272.1</ele>
        <time>2019-10-03T13:40:48Z</time>
      </trkpt>
      <trkpt lat="38.482602" lon="-0.423644">
        <ele>272.1</ele>
        <time>2019-10-03T13:40:49Z</time>
      </trkpt>
      <trkpt lat="38.482792" lon="-0.423488">
        <ele>272.2</ele>
        <time>2019-10-03T13:40:50Z</time>
      </trkpt>
      <trkpt lat="38.482985" lon="-0.423335">
        <ele>272.3</ele>
        <time>2019-10-03T13:40:51Z</time>
      </trkpt>
      <trkpt lat="38.483180" lon="-0.423184">
        <ele>272.6</ele>
        <time>2019-10-03T13:40:52Z</time>
      </trkpt>
      <trkpt lat="38.483375" lon="-0.423036">
        <ele>272.8</ele>
        <time>2019-10-03T13:40:53Z</time>
      </trkpt>
      <trkpt lat="38.483567" lon="-0.422889">
        <ele>273.0</ele>
        <time>2019-10-03T13:40:54Z</time>
      </trkpt>
      <trkpt lat="38.483757" lon="-0.422745">
        <ele>273.2</ele>
        <time>2019-10-03T13:40:55Z</time>
      </trkpt>
      <trkpt lat="38.486252" lon="-0.420182">
        <ele>277.2</ele>
        <time>2019-10-03T13:41:09Z</time>
      </trkpt>
      <trkpt lat="38.486440" lon="-0.419890">
        <ele>276.9</ele>
        <time>2019-10-03T13:41:11Z</time>
      </trkpt>
      <trkpt lat="38.486735" lon="-0.419701">
        <ele>271.5</ele>
        <time>2019-10-03T13:41:13Z</time>
      </trkpt>
      <trkpt lat="38.486749" lon="-0.419234">
        <ele>280.5</ele>
        <time>2019-10-03T13:41:14Z</time>
      </trkpt>
      <trkpt lat="38.486891" lon="-0.419050">
        <ele>284.1</ele>
        <time>2019-10-03T13:41:15Z</time>
      </trkpt>
      <trkpt lat="38.487034" lon="-0.418860">
        <ele>284.6</ele>
        <time>2019-10-03T13:41:16Z</time>
      </trkpt>
      <trkpt lat="38.487165" lon="-0.418671">
        <ele>285.1</ele>
        <time>2019-10-03T13:41:17Z</time>
      </trkpt>
      <trkpt lat="38.487294" lon="-0.418472">
        <ele>285.7</ele>
        <time>2019-10-03T13:41:18Z</time>
      </trkpt>
      <trkpt lat="38.487423" lon="-0.418263">
        <ele>287.2</ele>
        <time>2019-10-03T13:41:19Z</time>
      </trkpt>
      <trkpt lat="38.487555" lon="-0.418058">
        <ele>287.9</ele>
        <time>2019-10-03T13:41:20Z</time>
      </trkpt>
      <trkpt lat="38.487688" lon="-0.417850">
        <ele>288.5</ele>
        <time>2019-10-03T13:41:21Z</time>
      </trkpt>
      <trkpt lat="38.487826" lon="-0.417642">
        <ele>288.9</ele>
        <time>2019-10-03T13:41:22Z</time>
      </trkpt>
      <trkpt lat="38.487965" lon="-0.417432">
        <ele>289.6</ele>
        <time>2019-10-03T13:41:23Z</time>
      </trkpt>
      <trkpt lat="38.488109" lon="-0.417219">
        <ele>290.5</ele>
        <time>2019-10-03T13:41:24Z</time>
      </trkpt>
      <trkpt lat="38.488257" lon="-0.417001">
        <ele>291.7</ele>
        <time>2019-10-03T13:41:25Z</time>
      </trkpt>
      <trkpt lat="38.488410" lon="-0.416779">
        <ele>293.2</ele>
        <time>2019-10-03T13:41:26Z</time>
      </trkpt>
      <trkpt lat="38.488555" lon="-0.416561">
        <ele>294.5</ele>
        <time>2019-10-03T13:41:27Z</time>
      </trkpt>
      <trkpt lat="38.488696" lon="-0.416349">
        <ele>295.5</ele>
        <time>2019-10-03T13:41:28Z</time>
      </trkpt>
      <trkpt lat="38.488834" lon="-0.416142">
        <ele>296.4</ele>
        <time>2019-10-03T13:41:29Z</time>
      </trkpt>
      <trkpt lat="38.488970" lon="-0.415940">
        <ele>297.1</ele>
        <time>2019-10-03T13:41:30Z</time>
      </trkpt>
      <trkpt lat="38.489109" lon="-0.415741">
        <ele>297.8</ele>
        <time>2019-10-03T13:41:31Z</time>
      </trkpt>
      <trkpt lat="38.489254" lon="-0.415551">
        <ele>298.5</ele>
        <time>2019-10-03T13:41:32Z</time>
      </trkpt>
      <trkpt lat="38.489410" lon="-0.415371">
        <ele>299.2</ele>
        <time>2019-10-03T13:41:33Z</time>
      </trkpt>
      <trkpt lat="38.489571" lon="-0.415205">
        <ele>300.2</ele>
        <time>2019-10-03T13:41:34Z</time>
      </trkpt>
      <trkpt lat="38.489750" lon="-0.415046">
        <ele>300.8</ele>
        <time>2019-10-03T13:41:35Z</time>
      </trkpt>
      <trkpt lat="38.489934" lon="-0.414904">
        <ele>301.4</ele>
        <time>2019-10-03T13:41:36Z</time>
      </trkpt>
      <trkpt lat="38.490113" lon="-0.414795">
        <ele>301.9</ele>
        <time>2019-10-03T13:41:37Z</time>
      </trkpt>
      <trkpt lat="38.490288" lon="-0.414721">
        <ele>302.5</ele>
        <time>2019-10-03T13:41:38Z</time>
      </trkpt>
      <trkpt lat="38.490452" lon="-0.414678">
        <ele>303.0</ele>
        <time>2019-10-03T13:41:39Z</time>
      </trkpt>
      <trkpt lat="38.490605" lon="-0.414651">
        <ele>303.5</ele>
        <time>2019-10-03T13:41:40Z</time>
      </trkpt>
      <trkpt lat="38.490753" lon="-0.414665">
        <ele>304.0</ele>
        <time>2019-10-03T13:41:41Z</time>
      </trkpt>
      <trkpt lat="38.490887" lon="-0.414683">
        <ele>304.5</ele>
        <time>2019-10-03T13:41:42Z</time>
      </trkpt>
      <trkpt lat="38.490997" lon="-0.414693">
        <ele>305.0</ele>
        <time>2019-10-03T13:41:43Z</time>
      </trkpt>
      <trkpt lat="38.491155" lon="-0.414702">
        <ele>305.8</ele>
        <time>2019-10-03T13:41:45Z</time>
      </trkpt>
      <trkpt lat="38.491249" lon="-0.414677">
        <ele>306.8</ele>
        <time>2019-10-03T13:41:47Z</time>
      </trkpt>
      <trkpt lat="38.491348" lon="-0.414605">
        <ele>308.6</ele>
        <time>2019-10-03T13:42:09Z</time>
      </trkpt>
      <trkpt lat="38.491401" lon="-0.414489">
        <ele>308.7</ele>
        <time>2019-10-03T13:42:17Z</time>
      </trkpt>
      <trkpt lat="38.491396" lon="-0.414346">
        <ele>308.3</ele>
        <time>2019-10-03T13:42:19Z</time>
      </trkpt>
      <trkpt lat="38.491332" lon="-0.414135">
        <ele>308.0</ele>
        <time>2019-10-03T13:42:21Z</time>
      </trkpt>
      <trkpt lat="38.491275" lon="-0.414009">
        <ele>307.8</ele>
        <time>2019-10-03T13:42:22Z</time>
      </trkpt>
      <trkpt lat="38.491207" lon="-0.413880">
        <ele>307.6</ele>
        <time>2019-10-03T13:42:23Z</time>
      </trkpt>
      <trkpt lat="38.491122" lon="-0.413756">
        <ele>307.2</ele>
        <time>2019-10-03T13:42:24Z</time>
      </trkpt>
      <trkpt lat="38.491012" lon="-0.413635">
        <ele>307.0</ele>
        <time>2019-10-03T13:42:25Z</time>
      </trkpt>
      <trkpt lat="38.490882" lon="-0.413519">
        <ele>306.7</ele>
        <time>2019-10-03T13:42:26Z</time>
      </trkpt>
      <trkpt lat="38.490741" lon="-0.413418">
        <ele>306.7</ele>
        <time>2019-10-03T13:42:27Z</time>
      </trkpt>
      <trkpt lat="38.490592" lon="-0.413349">
        <ele>306.6</ele>
        <time>2019-10-03T13:42:28Z</time>
      </trkpt>
      <trkpt lat="38.490433" lon="-0.413306">
        <ele>306.4</ele>
        <time>2019-10-03T13:42:29Z</time>
      </trkpt>
      <trkpt lat="38.490263" lon="-0.413281">
        <ele>306.2</ele>
        <time>2019-10-03T13:42:30Z</time>
      </trkpt>
      <trkpt lat="38.490086" lon="-0.413274">
        <ele>306.0</ele>
        <time>2019-10-03T13:42:31Z</time>
      </trkpt>
      <trkpt lat="38.489904" lon="-0.413285">
        <ele>306.1</ele>
        <time>2019-10-03T13:42:32Z</time>
      </trkpt>
      <trkpt lat="38.489721" lon="-0.413327">
        <ele>306.1</ele>
        <time>2019-10-03T13:42:33Z</time>
      </trkpt>
      <trkpt lat="38.489539" lon="-0.413392">
        <ele>305.9</ele>
        <time>2019-10-03T13:42:34Z</time>
      </trkpt>
      <trkpt lat="38.489359" lon="-0.413468">
        <ele>305.6</ele>
        <time>2019-10-03T13:42:35Z</time>
      </trkpt>
      <trkpt lat="38.489185" lon="-0.413525">
        <ele>305.4</ele>
        <time>2019-10-03T13:42:36Z</time>
      </trkpt>
      <trkpt lat="38.489008" lon="-0.413553">
        <ele>305.2</ele>
        <time>2019-10-03T13:42:37Z</time>
      </trkpt>
      <trkpt lat="38.488829" lon="-0.413562">
        <ele>305.4</ele>
        <time>2019-10-03T13:42:38Z</time>
      </trkpt>
      <trkpt lat="38.488653" lon="-0.413597">
        <ele>305.7</ele>
        <time>2019-10-03T13:42:39Z</time>
      </trkpt>
      <trkpt lat="38.488468" lon="-0.413653">
        <ele>305.9</ele>
        <time>2019-10-03T13:42:40Z</time>
      </trkpt>
      <trkpt lat="38.488274" lon="-0.413715">
        <ele>306.3</ele>
        <time>2019-10-03T13:42:41Z</time>
      </trkpt>
      <trkpt lat="38.488085" lon="-0.413787">
        <ele>306.9</ele>
        <time>2019-10-03T13:42:42Z</time>
      </trkpt>
      <trkpt lat="38.487913" lon="-0.413884">
        <ele>307.0</ele>
        <time>2019-10-03T13:42:43Z</time>
      </trkpt>
      <trkpt lat="38.486123" lon="-0.415784">
        <ele>310.4</ele>
        <time>2019-10-03T13:43:09Z</time>
      </trkpt>
      <trkpt lat="38.485798" lon="-0.415682">
        <ele>313.5</ele>
        <time>2019-10-03T13:43:10Z</time>
      </trkpt>
      <trkpt lat="38.485703" lon="-0.415720">
        <ele>316.8</ele>
        <time>2019-10-03T13:43:58Z</time>
      </trkpt>
      <trkpt lat="38.485585" lon="-0.415727">
        <ele>316.8</ele>
        <time>2019-10-03T13:44:00Z</time>
      </trkpt>
      <trkpt lat="38.485467" lon="-0.415800">
        <ele>316.8</ele>
        <time>2019-10-03T13:44:02Z</time>
      </trkpt>
      <trkpt lat="38.485362" lon="-0.415942">
        <ele>316.9</ele>
        <time>2019-10-03T13:44:04Z</time>
      </trkpt>
      <trkpt lat="38.485308" lon="-0.416035">
        <ele>316.9</ele>
        <time>2019-10-03T13:44:05Z</time>
      </trkpt>
      <trkpt lat="38.485217" lon="-0.416205">
        <ele>316.7</ele>
        <time>2019-10-03T13:44:07Z</time>
      </trkpt>
      <trkpt lat="38.485144" lon="-0.416324">
        <ele>317.3</ele>
        <time>2019-10-03T13:44:09Z</time>
      </trkpt>
      <trkpt lat="38.485079" lon="-0.416427">
        <ele>317.8</ele>
        <time>2019-10-03T13:44:11Z</time>
      </trkpt>
      <trkpt lat="38.485079" lon="-0.416427">
        <ele>317.8</ele>
        <time>2019-10-03T13:44:11Z</time>
      </trkpt>
    </trkseg>
  </trk>
</gpx>
